Vorticity
6 5 4 3 6 6 -1 6 17 29 -20 23 11 13 -9 7 -15 1 27 17 2 6 3 1 2 3 4 7 8 8 7 7 6 7 5 4 3 3 4 4 4 3 3 3 4 4 5 5 6
6 5 5 6 3 3 4 5 15 38 26 17 -9 11 2 -12 5 10 13 9 1 5 1 2 3 4 5 6 6 7 8 7 6 5 5 5 4 3 3 3 4 4 3 3 3 4 3 3 6
7 7 7 8 11 5 -7 -27 17 -3 -4 -5 -4 1 -6 7 3 9 20 4 7 3 4 2 3 4 4 5 7 6 8 8 7 6 5 5 5 4 3 3 4 4 4 4 3 3 4 4 4
7 7 9 4 -3 -10 -5 -6 40 6 -2 -3 2 -1 -6 -7 10 21 18 7 4 4 3 3 4 4 6 5 6 7 8 8 9 7 6 6 4 3 3 3 3 3 4 5 4 4 4 4 4
8 12 13 6 3 2 15 -2 40 -9 -5 -4 -1 5 7 16 15 17 2 6 4 2 2 3 3 5 4 5 6 8 9 10 11 11 10 7 6 6 6 6 6 4 4 4 4 5 5 4 4
12 4 4 9 -0 2 11 24 21 0 8 17 13 19 12 11 11 21 1 5 3 3 2 2 3 4 4 4 6 9 10 10 8 8 9 10 11 11 9 8 8 7 5 4 4 4 4 5 4
11 -1 12 8 3 5 18 32 -1 10 13 9 0 6 6 4 6 9 1 2 3 2 2 3 3 3 4 5 7 9 9 9 9 8 8 8 8 8 10 11 10 9 9 7 5 4 3 2 2
-2 10 7 9 0 24 9 4 -2 26 7 3 2 6 -0 1 10 7 7 2 3 3 3 2 3 4 4 5 8 10 11 8 8 9 10 10 11 10 9 8 8 8 9 9 8 8 8 8 6
-0 3 8 8 10 -10 18 9 9 -2 17 25 9 -0 3 9 8 6 5 4 2 4 3 2 4 3 5 7 11 10 7 8 6 6 6 6 8 9 11 10 10 10 8 6 6 8 8 8 8
-2 7 1 -7 -0 -6 4 12 9 -3 -2 1 1 6 1 2 3 5 8 10 4 5 3 3 4 5 6 8 9 7 7 7 7 6 6 6 5 7 7 8 9 10 10 11 10 7 7 7 7
10 5 2 11 4 12 0 6 2 2 9 7 7 12 6 2 8 3 -9 9 3 2 5 3 4 5 5 6 10 6 6 5 4 4 5 5 5 5 7 8 7 8 9 9 9 9 8 7 7
6 3 -0 3 11 10 15 0 11 9 9 10 5 3 6 8 6 4 8 7 11 8 6 3 5 7 6 8 10 7 6 6 7 6 5 4 4 4 4 5 5 6 6 7 7 7 7 7 7
7 11 -2 1 1 4 2 3 4 8 13 -6 12 12 10 6 9 2 5 8 1 9 5 5 6 7 8 10 7 6 4 5 4 5 5 5 5 4 4 4 4 5 6 6 6 6 6 6 6
10 11 11 13 -4 -1 -1 6 -4 2 3 14 7 6 11 8 1 10 5 8 -1 4 10 7 7 8 8 7 5 4 4 5 7 8 9 8 7 7 7 6 5 5 5 4 5 6 7 7 7
19 13 11 14 11 6 6 8 6 3 9 6 10 4 6 10 2 2 4 -0 6 8 9 6 7 7 6 8 6 4 3 5 4 5 5 8 10 9 6 7 8 9 9 8 6 5 6 6 6
-3 4 6 12 21 23 8 26 27 36 9 2 3 9 8 1 0 1 1 8 10 7 9 7 8 8 8 4 3 2 4 4 3 1 2 3 6 9 11 9 8 8 9 8 8 8 6 7 8
17 4 2 -2 34 -9 13 25 10 6 10 5 8 16 11 5 6 0 3 4 1 4 11 8 12 9 5 3 4 2 3 2 2 2 3 4 4 6 9 10 10 10 9 8 7 6 7 7 7
6 10 11 15 3 -14 -1 2 38 21 28 10 9 -6 -1 8 4 6 5 3 8 12 16 10 14 7 5 5 7 4 3 2 3 3 4 5 6 7 10 11 11 9 8 8 6 6 6 6 7
16 12 10 12 3 -12 -1 2 3 20 15 11 6 -3 10 14 8 7 5 3 0 3 16 7 16 9 10 8 5 5 1 1 2 3 3 4 5 9 10 8 8 8 7 6 6 6 7 7 7
5 6 4 -1 3 -2 20 5 5 1 5 11 10 15 6 11 8 2 2 1 2 5 8 10 15 18 17 10 7 5 5 6 7 5 4 3 6 9 8 7 6 6 6 7 7 7 6 7 7
6 3 2 5 4 9 14 13 10 5 -7 21 7 3 22 14 6 4 -1 3 3 -0 5 2 1 6 25 15 10 6 5 5 4 7 7 9 9 9 8 5 6 7 7 7 7 7 7 6 7
1 7 7 20 5 -2 11 10 15 13 9 8 5 -3 7 14 0 -0 1 5 7 1 5 6 2 -2 7 22 13 8 6 6 6 5 8 7 9 10 7 7 7 7 7 8 8 8 9 10 11
10 18 14 1 35 0 11 7 10 22 18 24 12 11 -1 11 25 6 4 0 8 1 4 8 5 4 5 9 22 12 10 8 6 7 8 8 7 7 6 7 7 7 7 9 10 11 11 12 12
10 10 23 16 17 24 7 -3 27 9 6 29 32 28 7 16 5 33 7 7 7 1 6 5 5 3 2 22 20 13 9 8 7 8 8 6 6 5 5 4 5 6 9 11 9 8 9 9 9
-15 -7 25 25 21 -0 14 26 -18 -27 -19 -7 19 22 2 29 10 11 31 11 6 1 5 6 4 6 18 19 15 11 9 9 8 9 7 5 5 5 3 2 6 8 5 7 5 8 8 10 11
23 1 -53 33 10 8 17 26 27 48 26 14 19 20 12 15 7 30 31 16 8 7 6 4 5 11 20 17 11 8 9 9 10 8 5 5 5 3 4 12 11 10 9 7 8 10 10 10 10
72 4 32 6 -5 8 -3 -1 -19 16 -4 31 24 18 26 37 44 45 31 11 12 8 5 6 10 18 18 12 9 11 12 10 7 4 3 4 4 10 11 7 10 8 7 8 11 11 12 11 10
11 44 26 -5 7 13 16 9 -6 31 29 30 21 14 19 10 11 15 26 11 10 8 7 22 17 20 13 12 11 7 7 7 4 4 6 6 10 11 9 9 8 10 9 12 11 11 11 10 10
6 8 10 30 12 0 10 15 6 -13 -5 -0 20 18 17 22 18 11 -16 -1 6 10 8 2 11 4 6 9 9 8 7 5 2 2 3 10 14 10 8 10 10 10 9 9 10 11 10 9 9
16 3 4 5 11 22 -3 5 -15 -1 41 16 16 -10 1 -4 4 11 20 37 4 -2 22 12 2 7 10 10 9 7 8 3 1 1 10 15 9 8 7 9 9 10 11 10 11 12 12 11 11
Height
3153 3152 3152 3152 3157 3151 3151 3153 3149 3148 3152 3150 3148 3148 3149 3150 3151 3155 3151 3153 3156 3159 3161 3162 3163 3164 3163 3162 3162 3161 3159 3159 3158 3157 3157 3157 3156 3156 3156 3155 3154 3153 3152 3151 3150 3149 3147 3146 3145
3151 3151 3152 3151 3152 3149 3152 3151 3148 3146 3147 3151 3152 3150 3150 3149 3149 3149 3150 3150 3154 3158 3159 3160 3161 3161 3162 3160 3160 3159 3158 3156 3155 3155 3154 3153 3153 3153 3153 3152 3152 3152 3151 3150 3149 3148 3147 3145 3145
3149 3150 3151 3149 3147 3147 3150 3151 3151 3149 3149 3148 3148 3147 3147 3146 3145 3146 3147 3149 3153 3156 3157 3158 3159 3160 3159 3159 3158 3156 3155 3154 3152 3151 3151 3151 3151 3150 3150 3150 3149 3149 3148 3148 3147 3146 3145 3144 3143
3148 3149 3149 3146 3145 3148 3149 3147 3150 3148 3146 3147 3146 3144 3142 3142 3143 3144 3145 3148 3151 3154 3156 3157 3158 3158 3157 3157 3155 3153 3152 3151 3149 3148 3148 3147 3147 3147 3147 3146 3147 3146 3146 3145 3144 3144 3143 3142 3141
3146 3146 3145 3143 3143 3145 3146 3144 3143 3145 3144 3142 3143 3142 3141 3140 3142 3144 3146 3148 3150 3152 3154 3154 3155 3155 3155 3154 3153 3151 3150 3149 3147 3146 3144 3144 3144 3143 3143 3143 3143 3142 3142 3142 3142 3141 3141 3140 3139
3145 3145 3143 3141 3141 3144 3142 3139 3139 3142 3140 3140 3139 3140 3140 3140 3143 3143 3144 3146 3148 3149 3150 3151 3152 3153 3153 3151 3150 3149 3147 3146 3144 3143 3142 3141 3140 3139 3139 3139 3139 3138 3138 3138 3138 3138 3137 3137 3136
3143 3143 3141 3140 3139 3142 3140 3139 3141 3141 3137 3137 3137 3137 3138 3138 3141 3143 3142 3143 3145 3147 3148 3149 3150 3150 3150 3149 3147 3145 3144 3143 3142 3141 3140 3138 3137 3136 3136 3136 3135 3135 3135 3134 3133 3133 3134 3133 3133
3141 3140 3139 3139 3140 3141 3140 3139 3137 3137 3136 3135 3134 3134 3136 3136 3138 3141 3142 3143 3144 3145 3146 3147 3148 3148 3147 3146 3144 3143 3142 3141 3140 3138 3138 3136 3136 3134 3134 3133 3132 3131 3131 3130 3130 3130 3130 3131 3130
3139 3138 3135 3137 3139 3138 3139 3138 3135 3134 3134 3133 3133 3134 3134 3134 3135 3136 3139 3140 3142 3143 3143 3144 3145 3144 3144 3143 3142 3141 3140 3138 3138 3137 3136 3135 3134 3132 3131 3130 3129 3128 3127 3126 3126 3126 3126 3126 3126
3137 3135 3134 3136 3137 3137 3136 3136 3135 3134 3132 3132 3132 3132 3132 3132 3133 3133 3135 3137 3139 3140 3141 3141 3141 3141 3140 3139 3139 3138 3138 3137 3136 3135 3135 3134 3132 3130 3129 3128 3128 3127 3126 3125 3123 3122 3123 3122 3122
3133 3131 3131 3132 3132 3133 3132 3132 3131 3132 3130 3129 3129 3129 3129 3130 3131 3132 3134 3135 3136 3137 3137 3137 3138 3138 3136 3136 3135 3135 3136 3135 3134 3133 3133 3132 3130 3128 3127 3127 3126 3125 3124 3123 3122 3121 3120 3119 3118
3128 3129 3128 3127 3128 3127 3126 3126 3127 3127 3126 3126 3125 3124 3124 3125 3128 3130 3131 3131 3133 3134 3134 3134 3133 3133 3132 3132 3132 3132 3133 3133 3132 3130 3130 3129 3128 3126 3125 3125 3123 3122 3121 3120 3119 3119 3117 3115 3114
3124 3124 3123 3122 3122 3123 3122 3121 3120 3121 3121 3122 3121 3121 3121 3120 3122 3125 3126 3128 3129 3129 3130 3129 3129 3129 3128 3128 3128 3129 3129 3130 3129 3127 3127 3125 3124 3123 3122 3122 3120 3119 3118 3117 3116 3114 3113 3112 3110
3117 3117 3117 3117 3116 3117 3118 3116 3115 3117 3115 3116 3116 3117 3118 3118 3118 3120 3123 3124 3126 3126 3125 3125 3125 3125 3124 3125 3124 3124 3125 3125 3125 3124 3124 3122 3121 3119 3119 3118 3116 3115 3114 3112 3112 3111 3109 3108 3106
3112 3109 3108 3110 3113 3111 3113 3109 3107 3110 3108 3109 3111 3112 3113 3114 3114 3114 3120 3122 3122 3122 3120 3120 3120 3121 3120 3120 3119 3120 3121 3122 3122 3121 3120 3119 3117 3116 3115 3114 3112 3110 3108 3108 3107 3105 3103 3102 3101
3107 3105 3102 3103 3106 3107 3106 3099 3104 3105 3101 3102 3105 3107 3107 3107 3108 3108 3112 3116 3116 3114 3114 3114 3115 3116 3115 3115 3115 3116 3116 3118 3117 3117 3115 3114 3112 3111 3110 3109 3107 3105 3103 3102 3100 3099 3098 3096 3095
3100 3098 3099 3098 3099 3101 3100 3096 3099 3101 3098 3096 3098 3100 3101 3100 3101 3101 3104 3107 3110 3109 3109 3110 3109 3110 3110 3110 3110 3111 3111 3112 3112 3112 3110 3109 3108 3106 3104 3103 3101 3099 3097 3096 3095 3093 3091 3090 3089
3092 3093 3093 3094 3096 3095 3094 3091 3090 3090 3091 3093 3093 3094 3095 3094 3094 3095 3097 3100 3102 3103 3104 3105 3104 3104 3104 3104 3105 3106 3105 3106 3107 3107 3106 3105 3103 3102 3100 3098 3096 3094 3091 3089 3088 3086 3084 3081 3081
3092 3089 3087 3088 3090 3089 3087 3085 3087 3087 3087 3088 3088 3089 3088 3090 3088 3090 3091 3093 3095 3097 3097 3099 3100 3100 3099 3099 3100 3100 3099 3101 3102 3101 3100 3099 3098 3097 3095 3093 3089 3087 3085 3083 3081 3080 3079 3076 3073
3086 3084 3081 3082 3084 3085 3081 3077 3079 3081 3082 3084 3085 3084 3083 3082 3082 3083 3086 3087 3089 3091 3092 3094 3094 3093 3093 3094 3094 3093 3094 3095 3097 3095 3095 3093 3092 3091 3089 3087 3084 3082 3080 3077 3074 3073 3072 3069 3065
3079 3078 3078 3078 3080 3078 3075 3066 3070 3074 3076 3078 3079 3079 3078 3076 3075 3076 3078 3080 3082 3085 3086 3088 3089 3087 3088 3088 3088 3087 3087 3088 3090 3090 3088 3087 3086 3085 3083 3082 3079 3076 3073 3071 3068 3064 3061 3061 3058
3068 3076 3073 3072 3073 3069 3073 3056 3060 3064 3067 3070 3072 3072 3073 3070 3070 3072 3073 3073 3074 3076 3078 3080 3083 3083 3082 3082 3082 3081 3081 3080 3082 3084 3083 3081 3080 3079 3078 3076 3073 3070 3068 3065 3062 3058 3054 3051 3050
3061 3067 3066 3065 3063 3063 3060 3065 3050 3057 3058 3061 3065 3064 3065 3063 3062 3064 3066 3067 3069 3070 3073 3074 3077 3077 3077 3076 3076 3075 3075 3075 3076 3076 3076 3075 3074 3073 3071 3070 3067 3064 3061 3058 3055 3051 3049 3045 3042
3060 3060 3059 3060 3057 3055 3046 3058 3042 3050 3053 3053 3054 3054 3055 3053 3053 3052 3054 3057 3062 3064 3065 3067 3070 3071 3071 3070 3069 3070 3071 3071 3071 3070 3070 3069 3067 3066 3065 3063 3060 3057 3053 3051 3047 3044 3040 3037 3033
3054 3057 3055 3052 3050 3043 3048 3050 3038 3043 3047 3042 3044 3042 3043 3041 3040 3041 3043 3048 3052 3057 3059 3063 3064 3064 3064 3064 3065 3065 3065 3065 3065 3065 3065 3065 3062 3060 3058 3055 3052 3050 3047 3043 3039 3035 3032 3029 3025
3042 3048 3049 3044 3042 3040 3040 3037 3038 3040 3038 3034 3034 3032 3030 3031 3032 3032 3036 3040 3048 3052 3056 3059 3059 3059 3058 3059 3061 3061 3059 3060 3060 3061 3061 3059 3057 3054 3051 3047 3043 3041 3038 3035 3032 3028 3025 3021 3018
3032 3034 3042 3040 3039 3039 3035 3032 3035 3037 3036 3030 3030 3027 3025 3027 3028 3030 3038 3043 3044 3049 3055 3056 3054 3054 3053 3052 3054 3056 3055 3055 3056 3056 3054 3052 3050 3047 3043 3039 3036 3034 3030 3027 3024 3020 3017 3013 3009
3029 3030 3033 3033 3036 3036 3030 3030 3030 3031 3029 3028 3025 3024 3023 3024 3027 3033 3036 3043 3045 3048 3049 3048 3050 3049 3048 3049 3049 3049 3050 3049 3050 3049 3048 3046 3044 3041 3036 3033 3029 3028 3023 3020 3017 3013 3009 3005 3000
3026 3027 3027 3026 3027 3029 3029 3028 3027 3025 3027 3028 3024 3022 3025 3026 3028 3032 3035 3038 3040 3040 3041 3044 3046 3045 3045 3045 3045 3045 3045 3044 3044 3043 3041 3040 3038 3034 3030 3027 3023 3021 3017 3013 3010 3006 3002 2998 2993
3024 3026 3024 3023 3023 3022 3022 3022 3021 3021 3025 3023 3022 3017 3023 3026 3027 3028 3031 3032 3034 3037 3038 3041 3041 3040 3040 3040 3040 3040 3040 3039 3038 3037 3035 3033 3032 3027 3023 3020 3017 3014 3009 3005 3003 2998 2993 2988 2984